星链-34673 (STARLINK-34673)

导读 | 豆包AI

STARLINK-34673是美国太空探索技术公司(SpaceX)于2025年8月4日发射的星链(Starlink)低轨互联网卫星,隶属于全球规模最大的低轨卫星互联网星座,运行在近地轨道。该卫星旨在为全球偏远、基础设施缺失区域提供高速低延迟宽带互联网服务,助力提升全球网络覆盖水平,推动星链星座组网扩容。

基本信息
目录编号:
65090
目录名称:
STARLINK-34673
国际标识:
2025-167N
轨道中心:
EARTH
卫星名称:
星链-34673
卫星全名:
星链-34673 (STARLINK-34673)
卫星状态:
在轨 (已飞行222 天)
发射日期:
2025-08-04 UTC
国别 :
美国 (US)
星等 :
--
轨道信息
数据来源 国际轨道数据 AOE轨道数据
星历时间 2026-03-14T07:32:28+0800
14小时前
查看轨道信息
2026-03-08T22:00:00+0800
6天前
查看轨道信息
半长轴 6853.288km 6853.401km
偏心率 0.0001126 0.0001197
轨道倾角 53.160° 53.162°
近地点辐角 108.352° 78.814°
升交点赤经 6.949° 32.026°
平近点角 251.760° 51.197°
近地点 474.379km 474.443km
远地点 475.923km 476.085km
周期 94.104分钟 94.106分钟
每日圈数 15.302216 15.301837
详细信息
固有亮度:
5
最大亮度:
2.5
卫星平台:
Starlink V1.0
覆盖范围:
全球
运营商:
太空探索技术公司
运营商所在国:
美国
制造商(研发单位):
太空探索技术公司
制造商所在国:
美国
使用方式:
暂无
卫星简介
Starlink 计划是 SpaceX 推出的全球卫星互联网项目,通过发射低轨道卫星,为全球尤其是偏远地区提供高速、低延迟的互联网服务。自 2019 年起,Starlink 已部署数千颗卫星,旨在缩小全球数字鸿沟,推动互联网普及。该项目还为军事、航空等行业提供通信支持,带来广泛经济效益。
2D轨道图
3D轨道图
轨道高度分析图
轨道倾角分析图
轨道综合分析图
查看轨道综合分析图